Location: Dumbr?vi?a
(45.8833°N, 22.7000°E)
Time: 14:30:52
(UTC+00:00)

YAOGAN 1 - Pass Details

Date: 03 March 2021
Orbit: 618 x 620 km, 97.9° (Epoch: 16 April)

Event Time Altitude Azimuth Distance (km) Brightness Sun altitude
Rises 17:36:31 0° 181° (S) 2,883 6.0 -14.3°
Reaches altitude 10° 17:38:46 10° 188° (S) 1,982 5.2 -14.7°
Maximum altitude 17:42:54 45° 261° (W) 854 3.8 -15.4°
Drops below altitude 10° 17:47:04 10° 335° (NNW) 1,998 5.6 -16.2°
Sets 17:49:21 0° 341° (NNW) 2,909 6.4 -16.5°
